Weather in Priozersk

Russia / Saint-Petersburg and Leningrad Oblast     61°02′11″N   30°07′11″E
temp.,
°C
wind,
m/s
gust,
m/s
humid.,
%
clouds,
%
prec.,
mm/h
press.,
hPa
HPBL,
m
17 may, mon
mon1700:00+11sw2869100 0.0 1011169
03:00+8wsw23835 0.0 101250
06:00+10ssw117898 0.0 101235
09:00+17se245140 0.0 1013468
12:00+19ese465157 0.0 1012875
15:00+18ese4857100 0.0 1012676
18:00+17ese486590 0.0 1011336
21:00+15ese41372100 0.3 1009304
18 may, tue
tue1800:00+13nne2290100 1.1 100948
03:00+11ese2595100 2.3 1008127
06:00+11e3896100 0.6 1006187
09:00+14e378953 0.6 1005310
12:00+19ese4775100 0.1 1004598
15:00+24se4862100 0.6 10031238
18:00+22s397099 2.4 1002806
21:00+18s31090100 5.5 1002406
19 may, wed
wed1900:00+15sse399496 0.7 1003443
03:00+14ssw3129687 0.7 1003651
06:00+12s269473 0.0 1004276
09:00+16s258353 0.0 1003509
12:00+18sse2581100 1.0 1004536
15:00+19sw477470 3.8 10051107
18:00+16wsw347579 0.4 1005768
21:00+14wnw248883 0.4 1006245
20 may, thu
thu2000:00+12nw249399 0.1 1007167
03:00+10nnw1197100 0.1 100715
06:00+11nne1191100 0.0 100797
09:00+13ene228098 0.0 1008383
12:00+15ene347299 0.0 1006512
15:00+16ne3475100 0.0 1004477
18:00+14nw2394100 3.3 999148
21:00+13nw3797100 18.4 997313
21 may, fri
fri2100:00+13w1198100 0.1 99654
03:00+11wsw4898100 3.4 994433
06:00+11wsw61496100 14.4 996713
09:00+10w61494100 20.3 1000700
12:00+14wsw61282100 0.8 10031131
15:00+16sw71161100 1.0 10061388
18:00+15sw61355100 0.0 10081729
21:00+10sw5126840 0.0 1009924